Regional Weather Roundup
Issued by NWS

Home | Current Version | Previous Version | Graphics & Text | Print | Product List | Glossary On
Versions: 1 2 3 4 5 6 7 8 9 10 11 12 13 14 15 16 17 18 19 20 21 22 23 24 25 26 27 28 29 30 31 32 33 34 35 36 37 38 39 40 41 42 43 44 45 46 47 48 49 50
000
ASUS45 KCYS 270810
RWRWY

WYOMING REGIONAL WEATHER ROUNDUP
NATIONAL WEATHER SERVICE CHEYENNE WY
200 AM MDT TUE JUN 27 2017

NOTE:  "FAIR" INDICATES FEW OR NO CLOUDS BELOW 12,000 FEET
WITH NO SIGNIFICANT WEATHER AND/OR OBSTRUCTIONS TO VISIBILITY.

WYZ001-270900-
YELLOWSTONE NATIONAL PARK

CITY           SKY/WX    TMP DP  RH WIND       PRES   REMARKS
LK YELLOWSTONE   N/A     54  42  64 CALM      30.15F
W YELLOWSTONE  NOT AVBL

$$
WYZ002>013-054>058-071-098>099-270900-
NORTHERN WYOMING

CITY           SKY/WX    TMP DP  RH WIND       PRES   REMARKS
JACKSON        CLOUDY    63  43  48 NW5       30.04S
CODY           FAIR      73  36  25 SW12      29.89F
GREYBULL       FAIR      70  34  26 CALM      29.78F
WORLAND        FAIR      67  33  28 SE5       29.80F
SHERIDAN       FAIR      58  45  62 CALM      29.78F
BUFFALO        FAIR      64  38  38 SE10      29.87F
GILLETTE       FAIR      66  42  41 SE17G25   29.86F
NEWCASTLE      FAIR      64  36  34 E23G29    29.98F

$$
WYZ014>020-022>026-101>103-270900-
CENTRAL WYOMING

CITY           SKY/WX    TMP DP  RH WIND       PRES   REMARKS
BIG PINEY      FAIR      56  38  50 NE9       30.10F
PINEDALE       FAIR      54  45  71 W6        30.11F
DUBOIS         FAIR      61  36  39 W9        30.09F
LANDER         FAIR      74  35  24 SW16G26   29.95F
RIVERTON       FAIR      70  32  24 W9        29.93F
CASPER         FAIR      72  40  31 S20       29.92F
DOUGLAS        FAIR      63  51  65 SE22G28   29.95F

$$
WYZ021-027>030-104>119-270900-
SOUTHERN WYOMING

CITY           SKY/WX    TMP DP  RH WIND       PRES   REMARKS
EVANSTON       FAIR      62  38  40 SE9       30.07F
KEMMERER         N/A     64  32  29 SE5       30.10F
FORT BRIDGER   FAIR      63  36  36 S12       30.12F
ROCK SPRINGS   FAIR      70  34  26 S26G36    30.10F
DIXON          FAIR      58  33  39 CALM      30.10F
RAWLINS        FAIR      59  29  31 SE6       30.08S
SARATOGA       FAIR      55  30  38 SE6       30.11F
LARAMIE        FAIR      55  51  86 S21       30.13F
CHEYENNE       FAIR      57  54  89 S13       30.12F
TORRINGTON     FAIR      64  57  78 SE13      30.01F
PINE BLUFFS    FAIR      59  55  88 SE18G25   30.07F

$$



USA.gov is the U.S. government's official web portal to all federal, state and local government web resources and services.